Weather History for Ballenas Island, BC

Change the Weather History Date:

Monday, May 13, 2013

  Actual Average Record
Temperature  
Mean Temperature 54 °F -  
Max Temperature 59 °F - - ()
Min Temperature 50 °F - - ()
Degree Days  
Heating Degree Days 10    
Growing Degree Days 4 (Base 50)    
Moisture  
Dew Point 47 °F    
Average Humidity 75    
Maximum Humidity 94    
Minimum Humidity 59    
Precipitation  
Precipitation 0.12 in - - ()
Sea Level Pressure  
Sea Level Pressure 29.93 in    
Wind  
Wind Speed 6 mph ()    
Max Wind Speed 17 mph    
Max Gust Speed -    
T = Trace of Precipitation, MM = Missing Value Source: Averaged Metar Reports

Daily Weather History Graph

Daily Weather History Graph

Search for Another Location

Airport:

Trip Planner

Search our weather history database for the weather conditions in past years. The results will help you decide how hot, cold, wet, or windy it might be!

Date:

Astronomy

May. 13, 2013 Rise Set
Actual Time 5:35 AM PDT 8:51 PM PDT
Civil Twilight 4:57 AM PDT 9:29 PM PDT
Nautical Twilight 4:06 AM PDT 10:20 PM PDT
Astronomical Twilight 3:01 AM PDT 11:26 PM PDT
Moon 8:24 AM PDT (5/13) No Moon Set
Length of Visible Light 16h 32m
Length of Day
15h 16m
Waxing Crescent, 13% of the Moon is Illuminated
May 13
Waxing Crescent
May 17
First Quarter
May 24
Full
May 31
Last Quarter
Jun 8
New

Hourly Weather History & Observations

Time (PDT) Temp. Dew Point Humidity Pressure Visibility Wind Dir Wind Speed Gust Speed Precip Events Conditions
12:00 AM 59.2 °F 45.7 °F 61% 29.95 in - SSW 3.5 mph - N/A   Unknown
1:00 AM 58.8 °F 45.9 °F 62% 29.95 in - South 4.6 mph - N/A   Unknown
2:00 AM 58.1 °F 46.2 °F 65% 29.94 in - SE 3.5 mph - N/A   Unknown
3:00 AM 57.2 °F 47.8 °F 71% 29.94 in - ESE 3.5 mph - N/A   Unknown
4:00 AM 57.4 °F 47.5 °F 70% 29.95 in - SSW 1.2 mph - N/A   Unknown
5:00 AM 56 °F 48 °F 67% 29.94 in - SE 4.6 mph - -  
5:00 AM 56.1 °F 48.2 °F 75% 29.94 in - SE 4.6 mph - N/A   Unknown
6:00 AM 53.4 °F 48.0 °F 82% 29.94 in - NE 1.2 mph - N/A   Unknown
7:00 AM 53.8 °F 50.0 °F 87% 29.94 in - East 8.1 mph - 0.02 in   Unknown
8:00 AM 54.1 °F 51.1 °F 89% 29.92 in - ESE 13.8 mph - N/A   Unknown
9:00 AM 54.0 °F 51.1 °F 90% 29.91 in - ESE 15.0 mph - 0.02 in   Unknown
10:00 AM 54.1 °F 51.6 °F 91% 29.89 in - ESE 15.0 mph - 0.02 in   Unknown
11:00 AM 53 °F 51 °F 91% 29.88 in - ESE 12.7 mph - -  
11:00 AM 53.4 °F 51.1 °F 92% 29.88 in - ESE 12.7 mph - 0.06 in   Unknown
12:00 PM 53.1 °F 51.3 °F 94% 29.87 in - ESE 17.3 mph - 0.05 in   Unknown
2:00 PM 54.3 °F 48.9 °F 82% 29.85 in - SE 8.1 mph - 0.03 in   Unknown
3:00 PM 54.7 °F 51.1 °F 88% 29.84 in - ESE 11.5 mph - 0.02 in   Unknown
4:00 PM 53.6 °F 47.7 °F 80% 29.84 in - NW 9.2 mph - 0.02 in   Unknown
5:00 PM 56 °F 47 °F 65% 29.89 in - SW 10.4 mph - -  
5:00 PM 55.9 °F 47.5 °F 73% 29.89 in - SW 10.4 mph - N/A   Unknown
6:00 PM 55.0 °F 43.7 °F 66% 29.92 in - WSW 17.3 mph - N/A   Unknown
7:00 PM 54.0 °F 44.2 °F 70% 29.94 in - WSW 9.2 mph - N/A   Unknown
8:00 PM 54.7 °F 44.2 °F 68% 29.99 in - West 4.6 mph - N/A   Unknown
9:00 PM 54.0 °F 41.5 °F 63% 30.02 in - SW 15.0 mph - N/A   Unknown
10:00 PM 50.9 °F 40.6 °F 68% 30.05 in - South 1.2 mph - N/A   Unknown
11:00 PM 50 °F 40 °F 59% 30.07 in - South 2.3 mph - -  
11:00 PM 50.2 °F 40.1 °F 68% 30.07 in - South 2.3 mph - N/A   Unknown